Norrköping, Sweden

02:17 AM CET on Februari 22, 2018 (GMT +0100)
Unnamed Road | | Change Station

Elev 0 ft 58.48 °N, 16.44 °E | Updated 10 minutes ago

Mestadels molnigt
Mestadels molnigt
10.0 °F
Feels Like 10 °F
N
1.2
Vind Växlande Vind from Västlig
Gusts 2.5 miles/tim

Idag
High -- | Low -- °F
--% Chance of Precip.
Yesterday
High -- | Low -- °F
Precip. -- tum
Lufttryck 30.42 tum
Sikt 6.2 miles
Molnigt Molnigt 6800 ft
Vindavkylning 10 °F
Daggpunkt 4 °F
Luftfuktighet 75%
Rainfall 0.00 tum
Snow Depth Not available.
7:09 AM 5:07 PM
Första kvarteret, 36% visible
METAR ESSP 220050Z AUTO 00000KT 9999 OVC068/// M12/M13 Q1030
Lufttryck 30.42 tum
Sikt 6.2 miles
Molnigt Molnigt 6800 ft
Vindavkylning 10 °F
Daggpunkt 4 °F
Luftfuktighet 75%
Rainfall 0.00 tum
Snow Depth Not available.
7:09 AM 5:07 PM
Första kvarteret, 36% visible
METAR ESSP 220050Z AUTO 00000KT 9999 OVC068/// M12/M13 Q1030

Get Severe Weather Alerts

Thanks for signing up!

Be on the lookout for a verification email in your inbox.

You'll start receiving the daily forecast at 6 AM.

×

10-Day Weather Forecast

×

Almanac

Astronomi

Feb. 22, 2018 Rise Set
Actual Time
Civil Twilight
Nautical Twilight
Astronomical Twilight
Månen
Length Of Visible Light
Dagens längd
Tomorrow will be .
, % of the Moon is Illuminated

Today's Extremes

Country Highs Country Lows

Community

WunderPhotos

Category 6

Welcome to Category 6. This is the collective home for Weather Underground's featured writeups by Dr. Jeff Masters (right), Bob Henson (left), Chris Burt, and other regular contributors.

Nearby

Air Quality

  Air Quality AQ Index Pollutant
Not available.

Snödjup

Station Depth Elevation

Earthquake Activity

Stad Distance Mag. Time & Date
Minimum magnitude displayed is 2.5.

Coastal Water Temperatures

Plats Temperatur

Stations

Nearby Weather Stations

Station Location Temp Vindavkylning Daggpunkt Luftfuktighet Vind Precip. Elev Uppdaterad Type